Hauptseite
METAR-TAF:

METAR-TAF

Flughäfen :

Awg-1, Niederlande

Bohrplattform

Breite: 53-29-30N, Länge: 5-56-30E, Höhe: 33 m

Beobachtung

Neuester Wetterbericht von vor 52 Minuten, um 13:55 UTC
Wind 10 kt aus West/Südwest
Temperatur 15°C
Luftfeuchtigkeit 77%
Luftdruck 1018 hPa
Sichtweite 10 km oder mehr
Aufgelockert bewölkt in der Höhe von 3900 ft
Geschlossene Wolkendecke in der Höhe von 4400 ft

METAR: EHMA 201355Z AUTO 24010KT 9999 SCT039 OVC044 15/11 Q1018

Zeit: 16:47 (14:47 UTC)


TAF: fehlend

Wetterbeobachtungen und Prognosen von mehr als 4000 Flughäfen (METAR und TAF Bericht).

Die verfügbaren Stationen werden durch gelbe und rote Markierungen auf der Karte dargestellt.

Führen Sie die Maus auf sie, um den Namen der Station zu sehen.

Darauf klicken, um die Beobachtung von Wetterbeobachtungen und Prognosen zu sehen.

Um die Karte zu ändern : klicken Sie auf den grünen Tasten mit einem schwarzen Kreuz Zum Vergrößern, auf den grünen Button mit einem Gedankenstrich zu verkleinern, oder auf die grünen Pfeile für benachbarte Karten.


METAR-TAF: